www.pogodaiklimat.ru

Погода и климат >> Архив погоды >> Мексика >> Альтар


ПОГОДА в Альтаре

  • Прогноз погоды в Альтаре
  • Монитор погоды в Альтаре

АРХИВ ПОГОДЫ в Альтаре

Время (UTC), дата Ветер
(напр.,м/с)
 
Видим.   Явления Облачность Т
(С)
Тd
(С)
f
(%)
Тe
(С)
Тes
(С)
Комфортность P
(гПа)
Po
(гПа)
Тmin
(С)
Tmax
(С)
R
(мм)
R24
(мм)
S
(см)
15 10.09 В 1 30 км ясно +28.8 +21.8 66 +37 +41 очень
душно
1008.2 963.9
18 10.09 Ю 1 30 км 8/0 2000 м
[Ac trans]
+31.6 +20.7 52 +39 +48 очень
душно
1008.9 964.6 +25.8 +32.0
21 10.09 ЮВ 5 30 км 5/0 2000 м
[Ac trans]
+34.0 +20.0 44 +40 +46 очень
душно
1007.3 964.1
00 11.09 Ю 5 30 км 5/0 2000 м
[Ac trans]
+34.0 +20.0 44 +40 +41 очень
душно
1006.5 963.3 +25.8 +35.2
03 11.09 Ю 2 10 км 5/0 2000 м
[Ac trans]
+29.0 +20.6 61 +36 +36 очень
душно
1008.0 964.1
12 11.09 В 1 20 км ясно +25.0 +20.8 78 +31 +31 очень
душно
1006.2 961.8 +25.0 +35.2
15 11.09 СВ 1 30 км ясно +27.8 +21.3 68 +35 +39 очень
душно
1007.3 962.8
18 11.09 Ю 1 30 км 9/0 2000 м
[Ac trans]
+30.2 +20.1 55 +37 +45 очень
душно
1010.7 966.4 +24.2 +30.5
21 11.09 Ю 3 30 км 5/0 2000 м
[Ac trans]
+35.0 +20.4 43 +42 +50 опасность
перегрева
1010.0 966.8
00 12.09 Ю 2 30 км ясно +35.6 +19.3 38 +40 +43 очень
душно
1008.3 965.3 +24.2 +36.0
03 12.09 З 4 10 км ясно +31.0 +20.0 52 +37 +37 очень
душно
1008.5 964.8
12 12.09 СВ 1 20 км ясно +24.8 +19.9 74 +30 +30 душно 1010.0 965.4 +24.5 +36.0
15 12.09 СВ 1 30 км ясно +27.8 +21.0 67 +35 +38 очень
душно
1011.6 966.9
18 12.09 С 1 30 км ясно +33.2 +19.2 44 +39 +56 опасность
солнечного
удара
1010.9 966.3 +24.0 +33.5
21 12.09 Ю 1 30 км ясно +37.5 +18.0 32 +41 +58 опасность
перегрева
1008.2 968.4
00 13.09 З 5 30 км ясно +36.2 +17.8 34 +40 +41 очень
душно
1006.9 964.0 +24.0 +38.0
03 13.09 З 3 10 км ясно +31.0 +17.1 43 +35 +35 очень
душно
1007.7 964.1
12 13.09 СВ 1 20 км ясно +24.0 +14.7 56 +27 +27 жарко 1008.0 963.5 +23.5 +38.0
15 13.09 В 1 30 км ясно +26.4 +22.3 78 +34 +38 очень
душно
1008.7 964.3
18 13.09 ЮВ 1 30 км ясно +28.0 +17.1 52 +32 +49 душно 1009.2 964.8 +23.5 +29.2
12 14.09 СВ 1 20 км ясно +26.0 +20.6 72 +32 +32 очень
душно
1008.7 964.5 +25.5 +37.0
15 14.09 В 1 30 км ясно +27.0 +20.4 67 +33 +37 очень
душно
1009.5 965.3
18 14.09 Ю 1 30 км ясно +30.0 +17.7 48 +34 +52 опасность
солнечного
удара
1010.2 966.0 +15.5 +31.2
21 14.09 ЮЗ 1 30 км ясно +34.0 +19.1 42 +39 +56 опасность
солнечного
удара
1011.0 966.9
00 15.09 СЗ 1 30 км ясно +39.0 +18.3 30 +43 +46 опасность
перегрева
1012.0 967.7 +25.5 +40.0
12 15.09 СВ 1 20 км ясно +25.0 +24.1 95 +34 +34 очень
душно
1010.6 966.1 +24.5 +40.0
15 15.09 ЮВ 1 30 км ясно +26.0 +20.6 72 +32 +36 очень
душно
1011.5 966.9
18 15.09 Ю 1 30 км ясно +30.0 +17.7 48 +34 +51 опасность
солнечного
удара
1012.5 967.7 +24.5 +31.2
15 16.09 СВ 1 30 км ясно +28.0 +20.9 65 +35 +38 очень
душно
1009.5 965.4
18 16.09 ЮВ 1 30 км ясно +34.0 +20.9 46 +41 +58 опасность
перегрева
1009.6 965.4 +24.8 +34.5

 

Местоположение метеостанции Альтар (Мексика): широта 30.71 долгота -111.84 высота над уровнем моря 397 м.

В архиве по умолчанию представлена погода в Альтаре за последнюю неделю. Архивные данные за месяц целиком и за предыдущие месяцы, начиная с января 2011 года, Вы можете получить, выбрав интересующий диапазон дат из раскрывающегося списка и нажав кнопку "Ввод!".


*Определитесь, кто Вы:
робот инопланетянин человек

Внимание! Время в таблицах - всемирное. Для получения местного времени необходимо прибавить поправку, которая равна -8 ч.

Смотрите также архив погоды в соседних городах и на ближайших метеорологических станциях:

Погода в Пуэрто-Пеньяско (Мексика) (176 км)
Погода в Эрмосильо (Мексика) (196 км)
Погода в Эрмосильо Магна (Мексика) (201 км)
Погода в Накосари де Гарсия (Мексика) (210 км)
Погода в Сан-Фелипе (Мексика) (285 км)
Погода в Гуаймасе (Мексика) (324 км)
Погода в Эмпальме (Мексика) (326 км)
Погода в Нуэво Леон (Мексика) (362 км)
Погода в Нуэво-Касас-Грандесе (Мексика) (379 км)
Погода в Санта-Розалии (Мексика) (384 км)

Пояснения к столбцам:

Ветер - указаны скорость ветра в м/с - средняя за 10 мин, порывы в срок и между сроками (в фигурных скобках) и направление, откуда дует ветер: С - северный, СВ - северо-восточный, В - восточный, ЮВ - юго-восточный, Ю - южный, ЮЗ - юго-западный, З - западный, СЗ - северо-западный.
Видимость - горизонтальная дальность видимости в метрах или километрах. При видимости от 1 до 10 км при отсутствии осадков обычно наблюдается дымка, при ухудшении видимости до 1 км и менее - туман. В сухую погоду видимость может ухудшаться дымом, пылью или мглою.
Явления - указаны атмосферные явления, наблюдавшиеся в срок или в последний час перед сроком; фигурными скобками обозначены явления, наблюдавшиеся между сроками (за 1-3 часа до срока); квадратными скобками обозначены град или гололедные отложения с указанием их диаметра в мм.
Облачность - указаны через наклонную черту общая и нижняя облачность в баллах и высота нижней границы облаков в метрах; квадратными скобками обозначены формы облаков: Ci - перистые, Cs - перисто-слоистые, Cc - перисто-кучевые, Ac - высококучевые, As - высокослоистые, Sc - слоисто-кучевые, Ns - слоисто-дождевые, Cu - кучевые, Cb - кучево-дождевые. Подробнее классификацию облаков см. в Атласе облаков (PDF).
T - Температура воздуха - температура, измеренная на высоте 2 м над землей.
Td - Температура точки росы - температура, при понижении до которой содержащийся в воздухе водяной пар достигнет насыщения.
f - Относительная влажность воздуха - влажноcть воздуха, измеренная на высоте 2 м над землей.
Te - Эффективная температура - температура, которую ощущает одетый по сезону человек в тени. Характеристика душности погоды. При расчете учитывается влияние влажности воздуха и скорости ветра на теплоощущения человека.
Tes - Эффективная температура на солнце - температура, которую ощущает человек, с поправкой на солнечный нагрев. Характеристика знойности погоды. Зависит от высоты солнца над горизонтом, облачности и скорости ветра. Ночью, в пасмурную погоду, а также при ветре 12 м/с и более поправка равна нулю.
P - Атмосферное давление - приведенное к уровню моря атмосферное давление.
Po - Атмосферное давление - измеренное на уровне метеостанции атмосферное давление.
Tmin - Минимальная температура - минимум температуры воздуха на высоте 2 м над землей.
Tmax - Максимальная температура - максимум температуры воздуха на высоте 2 м над землей.
R - Количество осадков - Количество выпавших осадков за период времени, мм. При наведении курсора мыши на число - период времени, за который выпало указанное количество осадков.
R24 - Количество осадков - Количество выпавших осадков за 24 часа, мм.
S - Снежный покров - Высота снежного покрова, см. При наведении курсора мыши на число - состояние снежного покрова и степень покрытия местности в баллах.